Find PRSC-E03

NORAD ID: 68835 Int'l Des: 2026-092A Country: PRC operational
LEOCIRCULAR

Live-Position

3D-Globus wird geladen...

Über PRSC-E03

Beschreibung wird geladen...

Nächste Überflüge

Passes for default location (London). Set your location on the main map for personalized predictions.

Höhenverlauf

Loading altitude history...

Zweizeiliger Elementsatz

1 68835U 26092A 26121.65943729 .00003030 00000-0 20873-3 0 9995
2 68835 38.0027 3.9979 0004185 358.3995 1.6752 15.06444699 930
Epoch: 1. Mai 2026 • Age: 8 hours

Aktueller Status

Höhe 547.2 km
Geschwindigkeit 7.59 km/s
Subsatellitenpunkt -16.20°S, 125.52°E
Typ other

Most Searched